Anchorage Merrill, AK

8:52 AM AKDT on August 21, 2017 (GMT -0800)
Merrill

Weather History for PAMR - July, 2014

Change the Weather History Date:

Wednesday, July 9, 2014

  Actual Average Record
Temperature  
Mean Temperature 60 °F -  
Max Temperature 63 °F 66 °F 80 °F (2003)
Min Temperature 57 °F 52 °F 45 °F (2012)
Degree Days  
Heating Degree Days 6    
Growing Degree Days 10 (Base 50)    
Moisture  
Dew Point 51 °F    
Average Humidity 73    
Maximum Humidity 89    
Minimum Humidity 62    
Precipitation  
Precipitation 0.10 in - - ()
Sea Level Pressure  
Sea Level Pressure 30.03 in    
Wind  
Wind Speed 2 mph (NW)    
Max Wind Speed 7 mph    
Max Gust Speed -    
Visibility 10 miles    
Events Rain    
Averages and records for this station are not official NWS values.
T = Trace of Precipitation, MM = Missing Value Source: NWS Daily Summary

Daily Weather History Graph

Daily Weather History Graph

Search for Another Location

Airport or City:

Trip Planner

Search our weather history database for the weather conditions in past years. The results will help you decide how hot, cold, wet, or windy it might be!

Date:

Astronomy

Jul. 09, 2014 Rise Set
Actual Time 4:39 AM AKDT 11:28 PM AKDT
Civil Twilight 2:47 AM AKDT 1:16 AM AKDT
Nautical Twilight Sun does not set Sun does not set
Astronomical Twilight Sun does not set Sun does not set
Moon 8:23 PM AKDT (7/9) 2:40 AM AKDT (7/9)
Length of Visible Light 22h 28m
Length of Day
18h 48m
Waxing Gibbous, 90% of the Moon is Illuminated
Jul 9
Waxing Gibbous
Jul 12
Full
Jul 18
Last Quarter
Jul 26
New
Aug 3
First Quarter

Hourly Weather History & Observations

Time (AKDT) Temp. Dew Point Humidity Pressure Visibility Wind Dir Wind Speed Gust Speed Precip Events Conditions
12:53 AM 60.1 °F 50.0 °F 69% 30.01 in 10.0 mi Calm Calm - 0.00 in   Mostly Cloudy
1:53 AM 60.1 °F 50.0 °F 69% 30.02 in 10.0 mi Calm Calm - N/A   Mostly Cloudy
2:53 AM 60.1 °F 48.0 °F 64% 30.02 in 10.0 mi Calm Calm - N/A   Mostly Cloudy
3:53 AM 59.0 °F 48.0 °F 67% 30.04 in 10.0 mi Calm Calm - N/A   Mostly Cloudy
4:53 AM 57.0 °F 46.9 °F 69% 30.04 in 10.0 mi Calm Calm - N/A   Mostly Cloudy
5:53 AM 57.0 °F 48.0 °F 72% 30.04 in 10.0 mi Calm Calm - N/A   Mostly Cloudy
6:53 AM 57.9 °F 48.9 °F 72% 30.04 in 10.0 mi Calm Calm - N/A   Mostly Cloudy
7:53 AM 59.0 °F 48.9 °F 69% 30.05 in 10.0 mi Calm Calm - N/A   Mostly Cloudy
8:53 AM 60.1 °F 48.9 °F 67% 30.05 in 10.0 mi NW 4.6 mph - N/A   Mostly Cloudy
9:53 AM 60.1 °F 51.1 °F 72% 30.05 in 10.0 mi WNW 6.9 mph - N/A   Mostly Cloudy
10:00 AM 60.8 °F 51.8 °F 72% 30.05 in 10.0 mi WNW 5.8 mph - N/A   Overcast
10:36 AM 60.8 °F 51.8 °F 72% 30.05 in 10.0 mi NW 4.6 mph - N/A   Overcast
10:53 AM 61.0 °F 50.0 °F 67% 30.05 in 10.0 mi NW 4.6 mph - N/A   Mostly Cloudy
11:53 AM 61.0 °F 50.0 °F 67% 30.05 in 10.0 mi Calm Calm - N/A   Mostly Cloudy
12:53 PM 62.1 °F 50.0 °F 65% 30.05 in 10.0 mi WNW 4.6 mph - N/A   Overcast
1:53 PM 62.1 °F 48.9 °F 62% 30.05 in 10.0 mi WNW 5.8 mph - N/A   Overcast
2:53 PM 62.1 °F 48.9 °F 62% 30.04 in 10.0 mi West 6.9 mph - N/A   Overcast
3:53 PM 61.0 °F 48.9 °F 64% 30.04 in 10.0 mi WSW 4.6 mph - N/A   Overcast
4:53 PM 61.0 °F 50.0 °F 67% 30.03 in 10.0 mi West 3.5 mph - N/A   Overcast
5:53 PM 61.0 °F 51.1 °F 70% 30.02 in 10.0 mi NW 3.5 mph - 0.00 in Rain Light Rain
6:53 PM 60.1 °F 54.0 °F 80% 30.02 in 8.0 mi NNW 3.5 mph - 0.02 in Rain Light Rain
7:53 PM 59.0 °F 54.0 °F 83% 30.01 in 10.0 mi NNW 3.5 mph - 0.06 in Rain Light Rain
8:53 PM 57.9 °F 54.0 °F 87% 30.01 in 10.0 mi Calm Calm - 0.02 in Rain Light Rain
9:00 PM 57.2 °F 53.6 °F 88% 30.00 in 10.0 mi NNE 4.6 mph - 0.00 in Rain Light Rain
9:53 PM 57.9 °F 54.0 °F 87% 30.00 in 10.0 mi NNE 4.6 mph - 0.00 in   Overcast
10:53 PM 57.9 °F 54.0 °F 87% 29.99 in 10.0 mi North 5.8 mph - 0.00 in   Mostly Cloudy
11:27 PM 57.2 °F 53.6 °F 88% 29.97 in 10.0 mi North 4.6 mph - 0.00 in Rain Light Rain
11:53 PM 57.0 °F 54.0 °F 89% 29.98 in 10.0 mi North 4.6 mph - 0.00 in Rain Light Rain